Location: *
(51.1248°S, 108.4023°W)
Time: 22:41:10
(UTC+00:00)

COSMOS 2487 - Pass Details

Date: 15 June 2021
Orbit: 428 x 433 km, 74.7° (Epoch: 04 August)

Event Time Altitude Azimuth Distance (km) Brightness Sun altitude
Exits shadow 13:27:25 34° 277° (W) 756 3.0 -16.0°
Maximum altitude 13:27:36 34° 285° (WNW) 751 3.1 -15.9°
Drops below altitude 10° 13:30:45 10° 352° (N) 1,556 5.2 -15.5°
Sets 13:32:54 0° 1° (N) 2,414 6.4 -15.2°
